Location: Unspecified
(35.6961°N, 0.0000°E)
Time: 23:48:53
(UTC+00:00)

Explorer 11/Cluster Stage 4 - Pass Details

Date: 25 May 2019
Orbit: 467 x 1260 km, 28.8° (Epoch: 17 June)

Event Time Altitude Azimuth Distance (km) Brightness Sun altitude
Rises 05:02:48 0° 259° (W) 3,035 8.9 1.8°
Reaches altitude 10° 05:05:36 10° 249° (WSW) 1,986 8.0 2.3°
Maximum altitude 05:09:34 30° 188° (S) 996 6.9 3.0°
Drops below altitude 10° 05:13:00 10° 126° (SE) 1,706 8.8 3.7°
Sets 05:15:14 0° 114° (ESE) 2,532 9.9 4.1°
